Вернуться в каталог

STARLINK-2322

АктивенСвязьVLEO
NORAD 47791·PAYLOAD·🇺🇸 United States

Запущен Mar 11, 2021 с Cape Canaveral Space Force Station

Loading…

Ближайшие Пролёты (ближайшие 24 часа)

TLE

СвежийSource: CelesTrak SupGP

Эпоха: Sep 15, 2026, 00:26 UTC

1 47791C 21018E   26258.01854167  .00061516  00000+0  14244-2 0  2588
2 47791  53.1579  79.3590 0001389 266.4136  44.8034 15.41841960    15

Отслеживайте STARLINK-2322 в реальном времени с AllMySat

Download on the App Store